Regional Weather Roundup
Issued by NWS San Angelo, TX

Home | Current Version | Previous Version | Text Only | Print | Product List | Glossary On
Versions: 1 2 3 4 5 6 7 8 9 10 11 12 13 14 15 16 17 18 19 20 21 22 23 24 25 26 27 28 29 30 31 32 33 34 35 36 37 38 39 40 41 42 43 44 45 46 47 48 49 50
000
ASUS44 KSJT 040158
RWRSJT
WEST CENTRAL TEXAS REGIONAL WEATHER ROUNDUP
NATIONAL WEATHER SERVICE SAN ANGELO TX
900 PM CDT FRI JUL 03 2015

NOTE: "FAIR" INDICATES FEW OR NO CLOUDS BELOW 12,000 FEET WITH NO
SIGNIFICANT WEATHER AND/OR OBSTRUCTIONS TO VISIBILITY.

TXZ049-054-064>066-071>073-076>078-098-099-113-114-127-128-139-140-
154-155-168>170-040300
...LOCATIONS ACROSS WEST CENTRAL TEXAS...

CITY           SKY/WX    TMP DP  RH WIND       PRES   REMARKS
SAN ANGELO     MOCLDY    82  63  52 SE8       29.93R
ABILENE        PTCLDY    84  64  50 SE9       29.94S
DYESS AFB      NOT AVBL
JUNCTION       PTCLDY    83  64  52 SE8       29.96R
SWEETWATER     NOT AVBL
BROWNWOOD      NOT AVBL
COLEMAN        NOT AVBL
SONORA         NOT AVBL
OZONA          NOT AVBL
BRADY          NOT AVBL
$$

TEXAS PANHANDLE/OKLAHOMA PANHANDLE

CITY           SKY/WX    TMP DP  RH WIND       PRES   REMARKS
AMARILLO       LGT RAIN  70  61  73 NE30G48   30.03R
BORGER         CLOUDY    71  65  81 SE21G26   30.03F THUNDER
CANADIAN       NOT AVBL
DALHART        CLOUDY    72  62  71 VRB3      30.10R
DUMAS          NOT AVBL
GUYMON         NOT AVBL
HEREFORD       NOT AVBL
PAMPA          NOT AVBL
PERRYTON       NOT AVBL
$$

SOUTHERN PANHANDLE/SOUTH PLAINS/ROLLING PLAINS

CITY           SKY/WX    TMP DP  RH WIND       PRES   REMARKS
LUBBOCK        CLOUDY    81  64  56 S13       29.99S
SNYDER         NOT AVBL
CHILDRESS      PTCLDY    82  65  56 SE8       29.95R
SEMINOLE       NOT AVBL
$$

PERMIAN BASIN

CITY           SKY/WX    TMP DP  RH WIND       PRES   REMARKS
MIDLAND        MOCLDY    83  62  49 SE7       29.96R
ODESSA         MOCLDY    83  61  47 SE9       29.97S
WINK           CLOUDY    85  61  44 SE12      29.93R
$$

FAR WEST/SOUTHWEST MOUNTAINS/TRANS PECOS

CITY           SKY/WX    TMP DP  RH WIND       PRES   REMARKS
ALPINE         NOT AVBL
DRYDEN           N/A     84  65  52 SE5       29.92R
EL PASO        PTCLDY    89  56  32 E14       29.95R
FORT STOCKTON  PTCLDY    82  61  48 SE15      29.96S
GUADALUPE PASS MOCLDY    73  58  59 NE25      30.12R
MARFA          NOT AVBL
PECOS          NOT AVBL
$$

DALLAS/FORT WORTH METROPLEX

CITY           SKY/WX    TMP DP  RH WIND       PRES   REMARKS
DFW AIRPORT    CLOUDY    86  67  52 S6        29.90R
FTW MEACHAM    CLOUDY    85  68  56 S7        29.89S
DAL-EXECUTIVE  MOCLDY    84  68  58 VRB5      29.90S
GRAND PRAIRIE  NOT AVBL
ADDISON        NOT AVBL
MESQUITE       NOT AVBL
LANCASTER      NOT AVBL
$$

NORTH CENTRAL TEXAS

CITY           SKY/WX    TMP DP  RH WIND       PRES   REMARKS
SHRMAN/DENISON NOT AVBL
GAINESVILLE    NOT AVBL
BRIDGEPORT     NOT AVBL
DENTON         CLOUDY    80  71  74 S6        29.90R
WAXAHACHIE     NOT AVBL
GRANBURY       NOT AVBL
$$

WESTERN NORTH TEXAS

CITY           SKY/WX    TMP DP  RH WIND       PRES   REMARKS
WICHITA FALLS  MOCLDY    82  72  71 E5        29.90R
VERNON         NOT AVBL
BRECKENRIDGE   NOT AVBL
COMANCHE       NOT AVBL
$$

CENTRAL AND SOUTH CENTRAL TEXAS

CITY           SKY/WX    TMP DP  RH WIND       PRES   REMARKS
AUSTIN/BERGSTM MOCLDY    81  71  71 S9        29.94R
WACO           PTCLDY    83  71  67 S7        29.92R
HILLSBORO      NOT AVBL
TEMPLE         NOT AVBL
KILLEEN-GRAY   NOT AVBL
FORT HOOD      NOT AVBL
GEORGETOWN     PTCLDY    84  70  61 S7        29.93R
LAGO VISTA     NOT AVBL
SAN MARCOS     NOT AVBL
NEW BRAUNFELS  PTCLDY    82  71  69 S10       29.93R
RANDOLPH AFB   PTCLDY    80  70  70 SE8       29.95R
SAN ANTONIO    MOCLDY    84  70  62 S15       29.95R
STINSON        CLEAR     82  70  66 SE9       29.92R
PLEASANTON     NOT AVBL
LA GRANGE      NOT AVBL
GIDDINGS       NOT AVBL
$$

EAST TEXAS

CITY           SKY/WX    TMP DP  RH WIND       PRES   REMARKS
PARIS          NOT AVBL
CLARKSVILLE    NOT AVBL
TYLER          PTCLDY    82  74  76 S6        29.92S
LONGVIEW       PTCLDY    84  78  82 S3        29.91F
PALESTINE      NOT AVBL
NACOGDOCHES    NOT AVBL
$$

TEXAS HILL COUNTRY AND EDWARDS PLATEAU

CITY           SKY/WX    TMP DP  RH WIND       PRES   REMARKS
LLANO          NOT AVBL
HORSESHOE BAY  NOT AVBL
KERRVILLE      NOT AVBL
FREDERICKSBRG  NOT AVBL
ROCKSPRINGS    NOT AVBL
HONDO          PTCLDY    83  71  67 SE15      29.95R
UVALDE         NOT AVBL
DEL RIO        PTCLDY    87  67  51 E12       29.87R
$$

SOUTHEAST TEXAS

CITY           SKY/WX    TMP DP  RH WIND       PRES   REMARKS
COLLEGE STN    MOCLDY    81  75  82 S7        29.94S
CALDWELL       NOT AVBL
CROCKETT       NOT AVBL
BRENHAM        NOT AVBL
HUNTSVILLE     MOCLDY    84  75  74 S6        29.95S
CONROE         PTCLDY    82  72  71 SE8       29.95S
HOUSTON BUSH   MOCLDY    84  74  71 S9        29.95R
HOUSTON HOBBY  MOCLDY    82  75  79 S5        29.95S
PERLAND        MOCLDY    84  75  74 SE5       29.97S
WHARTON        NOT AVBL
$$

THE UPPER TEXAS COAST

CITY           SKY/WX    TMP DP  RH WIND       PRES   REMARKS
ORANGE         NOT AVBL
PORT ARTHUR    MOCLDY    81  76  84 S6        29.96F
GALVESTON      MOCLDY    84  77  79 S13       29.97F
ANGLETON       MOCLDY    82  77  84 S8        29.96S
BAY CITY       NOT AVBL
$$

TEXAS COASTAL BEND, RIO GRANDE PLAINS DEEP SOUTH TEXAS

CITY           SKY/WX    TMP DP  RH WIND       PRES   REMARKS
VICTORIA       PTCLDY    81  76  84 SE6       29.95R
BEEVILLE       NOT AVBL
ROCKPORT       LGT RAIN  84  77  79 SE12      29.92S
PORT ARANSAS   NOT AVBL
PORT LAVACA    PTCLDY    81  75  83 SE8       29.94S
CORPUS CHRISTI MOCLDY    82  76  81 SE13      29.92S
KINGSVILLE NAS CLEAR     82  79  90 SE12      29.92R
COTULLA        LGT RAIN  86  73  65 SE16      29.90R
LAREDO         NOT AVBL
BROWNSVILLE    CLEAR     82  76  81 SE12      29.93R
PORT ISABEL    CLEAR     82  77  84 SE13      29.92R
HEBBRONVILLE   NOT AVBL
MCALLEN        CLEAR     86  73  65 SE14      29.91R
WESLACO        NOT AVBL
FALFURRIAS     NOT AVBL
EDINBURG       NOT AVBL
$$


USA.gov is the U.S. government's official web portal to all federal, state and local government web resources and services.